"Pseudo-MPEC" for C92CD32

Created 2023 Apr 3 20:22:06 UT using Find_Orb

Click here for an explanation of pseudo-MPECs

 
 Astrometry: 
     C92CD32*1C2023 04 01.22563413 30 15.008+32 46 13.91   ~416b 20.76GVNEOCPG96
     C92CD32 1C2023 04 01.23079713 30 19.451+32 46 26.98   ~416b 21.20GVNEOCPG96
     C92CD32 1C2023 04 01.23594913 30 23.825+32 46 38.17   ~416b 20.44GVNEOCPG96
     C92CD32 1C2023 04 01.24111513 30 28.138+32 46 49.73   ~416b 20.45GVNEOCPG96
     C92CD32 KC2023 04 01.38229213 32 28.082+32 51 20.30   ~419b 20.15GVNEOCPI52
     C92CD32 KC2023 04 01.38339513 32 29.072+32 51 21.38   ~419b 20.80GVNEOCPI52
     C92CD32 KC2023 04 01.38449913 32 29.994+32 51 22.82   ~419b 20.53GVNEOCPI52
     C92CD32 KC2023 04 01.38562313 32 31.024+32 51 24.62   ~419b 21.25GVNEOCPI52
     C92CD32 KC2023 04 02.22649313 51 07.726+33 15 25.60   ~42Cb 20.42GVNEOCPI52
     C92CD32 KC2023 04 02.22732113 51 08.950+33 15 28.44   ~42Cb 20.73GVNEOCPI52
     C92CD32 KC2023 04 02.22814813 51 10.199+33 15 30.38   ~42Cb 20.20GVNEOCPI52
     C92CD32 KC2023 04 02.22897313 51 11.394+33 15 33.55   ~42Cb 20.95GVNEOCPI52
     C92CD32 BC2023 04 02.84437914 11 59.928+33 26 33.97   ~42Lb 20.0 GVNEOCPJ95
     C92CD32 BC2023 04 02.86734714 12 56.758+33 27 19.66   ~42Lb 19.9 GVNEOCPJ95

Station data:
(G96) Mt. Lemmon Survey  (N32.442751 W110.788720)  US/Arizona.  Observer E.
   J. Christensen. 1.5-m reflector + 10K CCD.
(I52) Steward Observatory, Mt. Lemmon Station  (N32.442544 W110.788920)
   US/Arizona.  Observers T. A. Pruyne, B. M. Africano, E. J. Christensen, G.
   A. Farneth, D. C. Fuls, A. R. Gibbs, A. D. Grauer, H. Gröller, J. A.
   Johnson, R. A. Kowalski, S. M. Larson, G. J. Leonard, D. Rankin, R. L.
   Seaman, F. C. Shelly, K. W. Wierzchoś. 1.0-m prime focus + CCD.
(J95) Great Shefford  (N51.474969 W1.447003)  UK/England.  Observer P.
   Birtwhistle. 0.41-m f/6.3 Schmidt-Cassegrain + CCD.

Orbital elements:  C92CD32
   Perihelion 2023 May 12.36077 +/- 0.0162 TT =  8:39:30 (JD 2460076.86077)
Epoch 2023 Apr  2.0 TT = JDT 2460036.5   Earth MOID: 0.0033   Ma: 0.0824
M 339.67572146 +/- 0.049            (J2000 ecliptic)             AutoNEOCP
n   0.50356521 +/- 0.00103          Peri.  226.15224 +/- 0.0029
a   1.56470415 +/- 0.00213          Node    16.37378 +/- 0.0010
e   0.4223697 +/- 0.000875          Incl.    9.28441 +/- 0.014
P   1.96/714.89d           H 27.52  G  0.15   U  8.1
q 0.90382048 +/- 0.000141    Q 2.22558781 +/- 0.0044
From 14 observations 2023 Apr. 1-2 (39.4 hr); mean residual 0".43
Residuals in arcseconds: 
230401 G96  .82-  .61-    230401 I52  .23+  .01+    230402 I52  .03+  .16+    
230401 G96  .23+  .45+    230401 I52  .34-  .20-    230402 I52  .68-  1.1+    
230401 G96  .58+  .24-    230401 I52  .21+  .07-    230402 J95  .08-  .44+    
230401 G96  .07+  .49-    230402 I52  .48+  .19-    230402 J95  .07+  .50-    
230401 I52  .07-  .58+    230402 I52  .09+  .43+    

Ephemerides (geocentric):
Date (UTC) HH   RA             Dec           delta  r     elong  mag " sig PA
---- --------  ------------   ------------  ------ ------ -----  --- --------
2023 04 03 20  15 14 17.185   +32 58 14.50  .01053 1.0064 128.6 19.6 1.41 166
2023 04 03 21  15 18 18.872   +32 51 57.56  .01032 1.0062 128.0 19.6 1.45 168
2023 04 03 22  15 22 30.091   +32 44 53.86  .01011 1.0060 127.5 19.5 1.48 171
2023 04 03 23  15 26 51.240   +32 36 58.82  .00990 1.0058 126.8 19.5 1.52 174
2023 04 04 00  15 31 22.721   +32 28 07.49  .00969 1.0056 126.2 19.5 1.56 177
2023 04 04 01  15 36 04.937   +32 18 14.46  .00949 1.0054 125.5 19.4 1.60   1
2023 04 04 02  15 40 58.286   +32 07 13.91  .00929 1.0052 124.8 19.4 1.65   4
2023 04 04 03  15 46 03.158   +31 54 59.51  .00909 1.0050 124.0 19.4 1.70   8
2023 04 04 04  15 51 19.931   +31 41 24.47  .00890 1.0048 123.2 19.4 1.76  12
2023 04 04 05  15 56 48.960   +31 26 21.52  .00871 1.0046 122.4 19.3 1.83  16
2023 04 04 06  16 02 30.574   +31 09 42.89  .00852 1.0044 121.5 19.3 1.90  20
2023 04 04 07  16 08 25.065   +30 51 20.37  .00834 1.0042 120.6 19.3 1.99  25
2023 04 04 08  16 14 32.678   +30 31 05.31  .00816 1.0040 119.6 19.3 2.09  29
2023 04 04 09  16 20 53.605   +30 08 48.69  .00799 1.0038 118.5 19.3 2.21  34
2023 04 04 10  16 27 27.968   +29 44 21.20  .00782 1.0036 117.4 19.3 2.34  38
2023 04 04 11  16 34 15.811   +29 17 33.33  .00766 1.0034 116.3 19.2 2.49  43
2023 04 04 12  16 41 17.086   +28 48 15.53  .00750 1.0032 115.1 19.2 2.66  47
2023 04 04 13  16 48 31.642   +28 16 18.38  .00735 1.0030 113.8 19.2 2.86  52
2023 04 04 14  16 55 59.213   +27 41 32.79  .00721 1.0028 112.5 19.2 3.08  56
2023 04 04 15  17 03 39.407   +27 03 50.23  .00707 1.0026 111.1 19.2 3.33  60
2023 04 04 16  17 11 31.697   +26 23 03.06  .00694 1.0024 109.7 19.2 3.60  64
2023 04 04 17  17 19 35.416   +25 39 04.84  .00682 1.0022 108.2 19.2 3.90  68
2023 04 04 18  17 27 49.749   +24 51 50.62  .00671 1.0020 106.6 19.3 4.23  72
2023 04 04 19  17 36 13.741   +24 01 17.34  987912 1.0018 105.0 19.3 4.58  75
2023 04 04 20  17 44 46.291   +23 07 24.17  973581 1.0016 103.3 19.3 4.97  79
2023 04 04 21  17 53 26.171   +22 10 12.82  960660 1.0014 101.6 19.3 5.37  82
2023 04 04 22  18 02 12.031   +21 09 47.81  949206 1.0012  99.8 19.4 5.80  84
2023 04 04 23  18 11 02.422   +20 06 16.67  939273 1.0010  98.0 19.4 6.25  87
2023 04 05 00  18 19 55.819   +18 59 50.03  930909 1.0008  96.1 19.5 6.71  89
2023 04 05 01  18 28 50.639   +17 50 41.64  924157 1.0006  94.2 19.5 7.19  92
2023 04 05 02  18 37 45.279   +16 39 08.19  919053 1.0004  92.3 19.6 7.67  94
2023 04 05 03  18 46 38.136   +15 25 29.03  915624 1.0002  90.3 19.7 8.15  96
2023 04 05 04  18 55 27.640   +14 10 05.80  913890 1.0000  88.3 19.7 8.63  97
2023 04 05 05  19 04 12.279   +12 53 21.87  913859 0.9998  86.4 19.8 9.10  99
2023 04 05 06  19 12 50.628   +11 35 41.80  915533 0.9996  84.4 19.9 9.56 100
2023 04 05 07  19 21 21.364   +10 17 30.63  918902 0.9994  82.5 20.0 10.0 101
2023 04 05 08  19 29 43.287   +08 59 13.28  923947 0.9992  80.6 20.1 10.4 103
2023 04 05 09  19 37 55.331   +07 41 13.92  930641 0.9990  78.7 20.2 10.8 104
2023 04 05 10  19 45 56.571   +06 23 55.40  938949 0.9988  76.8 20.3 11.2 104
2023 04 05 11  19 53 46.230   +05 07 38.80  948829 0.9986  75.0 20.4 11.5 105
2023 04 05 12  20 01 23.672   +03 52 43.04  960231 0.9984  73.3 20.6 11.8 106
2023 04 05 13  20 08 48.402   +02 39 24.68  973103 0.9982  71.6 20.7 12.1 106
2023 04 05 14  20 16 00.059   +01 27 57.77  987387 0.9980  70.0 20.8 12.3 107
2023 04 05 15  20 22 58.403   +00 18 33.82  .00670 0.9978  68.4 20.9 12.5 107
2023 04 05 16  20 29 43.308   -00 48 38.14  .00682 0.9976  66.9 21.1 12.7 108
2023 04 05 17  20 36 14.748   -01 53 31.41  .00694 0.9975  65.4 21.2 12.8 108
2023 04 05 18  20 42 32.785   -02 56 01.46  .00707 0.9973  64.1 21.3 13.0 108
2023 04 05 19  20 48 37.558   -03 56 05.69  .00720 0.9971  62.7 21.5 13.0 108